FRS28 EDAX-EDBR

Flight info

Callsign FRS28
Flight time 0h 57m
Altitude 2000
Route DIRECT
Aircraft COL4/L-V/N

Departure

Time 2026-05-05 13:48
Airport Müritz Airpark (EDAX)

Arrival

Time 2026-05-05 14:46
Airport Rothenburg/Görlitz Airfield (EDBR)
Time Latitude Longitude Altitude Speed Heading
2026-05-05 13:45 53.30198 12.74041 224 ft 0 kts 167°
2026-05-05 13:46 53.30200 12.74025 224 ft 4 kts 303°
2026-05-05 13:46 53.30209 12.73962 224 ft 7 kts 272°
2026-05-05 13:47 53.30222 12.73875 224 ft 9 kts 327°
2026-05-05 13:47 53.30284 12.73835 224 ft 11 kts 344°
2026-05-05 13:47 53.30355 12.73804 224 ft 10 kts 347°
2026-05-05 13:47 53.30430 12.73928 222 ft 34 kts 70°
2026-05-05 13:48 53.30564 12.74574 304 ft 72 kts 69°
2026-05-05 13:48 53.30710 12.75345 644 ft 67 kts 71°
2026-05-05 13:48 53.30845 12.76133 970 ft 75 kts 75°
2026-05-05 13:48 53.30717 12.77022 1302 ft 91 kts 122°
2026-05-05 13:49 53.30296 12.78003 1462 ft 114 kts 118°
2026-05-05 13:49 53.29824 12.79170 1635 ft 128 kts 120°
2026-05-05 13:49 53.29301 12.80426 1813 ft 136 kts 120°
2026-05-05 13:49 53.28738 12.81770 1903 ft 146 kts 122°
2026-05-05 13:50 53.28141 12.83178 1995 ft 151 kts 122°
2026-05-05 13:50 53.27530 12.84653 1999 ft 158 kts 122°
2026-05-05 13:50 53.26888 12.86160 2002 ft 157 kts 122°
2026-05-05 13:50 53.26265 12.87635 2001 ft 155 kts 122°
2026-05-05 13:51 53.25644 12.89103 2000 ft 154 kts 122°
2026-05-05 13:51 53.25025 12.90562 1998 ft 154 kts 123°
2026-05-05 13:51 53.24405 12.92017 2000 ft 154 kts 123°
2026-05-05 13:51 53.23783 12.93471 1997 ft 156 kts 122°
2026-05-05 13:52 53.23164 12.94929 1992 ft 153 kts 123°
2026-05-05 13:52 53.22537 12.96381 1994 ft 153 kts 122°
2026-05-05 13:52 53.21921 12.97823 1992 ft 153 kts 121°
2026-05-05 13:52 53.21302 12.99268 1995 ft 154 kts 122°
2026-05-05 13:53 53.20675 13.00741 1991 ft 154 kts 122°
2026-05-05 13:53 53.20055 13.02194 1997 ft 156 kts 122°
2026-05-05 13:53 53.19428 13.03670 1993 ft 156 kts 123°
2026-05-05 13:53 53.18791 13.05156 1989 ft 157 kts 123°
2026-05-05 13:54 53.18159 13.06633 1993 ft 157 kts 123°
2026-05-05 13:54 53.17527 13.08103 1993 ft 156 kts 123°
2026-05-05 13:54 53.16899 13.09564 1989 ft 155 kts 123°
2026-05-05 13:54 53.16273 13.11025 1991 ft 155 kts 123°
2026-05-05 13:55 53.15637 13.12500 1989 ft 156 kts 123°
2026-05-05 13:55 53.15010 13.13957 1987 ft 156 kts 122°
2026-05-05 13:55 53.14375 13.15422 1995 ft 157 kts 123°
2026-05-05 13:55 53.13739 13.16909 1993 ft 158 kts 123°
2026-05-05 13:56 53.13092 13.18416 1994 ft 158 kts 123°
2026-05-05 13:56 53.12453 13.19900 2001 ft 159 kts 123°
2026-05-05 13:56 53.11800 13.21420 2005 ft 161 kts 123°
2026-05-05 13:56 53.11153 13.22948 2002 ft 163 kts 123°
2026-05-05 13:57 53.10486 13.24510 2001 ft 165 kts 123°
2026-05-05 13:57 53.09825 13.26077 2001 ft 168 kts 123°
2026-05-05 13:57 53.09164 13.27700 2002 ft 172 kts 122°
2026-05-05 13:57 53.08490 13.29350 1998 ft 174 kts 123°
2026-05-05 13:58 53.07799 13.31011 1990 ft 171 kts 122°
2026-05-05 13:58 53.07118 13.32606 1989 ft 167 kts 122°
2026-05-05 13:58 53.06451 13.34153 1984 ft 163 kts 123°
2026-05-05 13:58 53.05795 13.35664 1988 ft 161 kts 123°
2026-05-05 13:59 53.04493 13.38660 1986 ft 157 kts 123°
2026-05-05 13:59 53.03782 13.40022 1984 ft 159 kts 131°
2026-05-05 14:00 53.02244 13.42678 1983 ft 159 kts 131°
2026-05-05 14:00 53.01725 13.43570 1986 ft 159 kts 131°
2026-05-05 14:00 53.00709 13.45333 1985 ft 160 kts 132°
2026-05-05 14:00 52.99936 13.46683 1982 ft 161 kts 132°
2026-05-05 14:01 52.99169 13.48020 1983 ft 160 kts 131°
2026-05-05 14:01 52.98397 13.49350 1988 ft 162 kts 131°
2026-05-05 14:01 52.97613 13.50713 1988 ft 162 kts 131°
2026-05-05 14:01 52.96837 13.52066 1984 ft 162 kts 131°
2026-05-05 14:02 52.96058 13.53413 1987 ft 163 kts 131°
2026-05-05 14:02 52.95271 13.54783 1989 ft 162 kts 130°
2026-05-05 14:02 52.94501 13.56122 1987 ft 161 kts 132°
2026-05-05 14:02 52.93725 13.57461 1984 ft 161 kts 131°
2026-05-05 14:03 52.92946 13.58798 1985 ft 161 kts 132°
2026-05-05 14:03 52.92176 13.60130 1986 ft 161 kts 131°
2026-05-05 14:03 52.91657 13.61030 1982 ft 161 kts 131°
2026-05-05 14:03 52.90615 13.62821 1985 ft 162 kts 132°
2026-05-05 14:04 52.90097 13.63719 1986 ft 162 kts 131°
2026-05-05 14:04 52.89322 13.65061 1987 ft 161 kts 131°
2026-05-05 14:04 52.88534 13.66414 1989 ft 163 kts 132°
2026-05-05 14:04 52.87746 13.67786 1991 ft 165 kts 131°
2026-05-05 14:05 52.86965 13.69159 1984 ft 164 kts 132°
2026-05-05 14:05 52.86168 13.70525 1978 ft 163 kts 132°
2026-05-05 14:05 52.85384 13.71859 1983 ft 163 kts 132°
2026-05-05 14:05 52.84601 13.73206 1981 ft 163 kts 131°
2026-05-05 14:06 52.83811 13.74569 1979 ft 162 kts 133°
2026-05-05 14:06 52.83024 13.75901 1983 ft 164 kts 132°
2026-05-05 14:06 52.82226 13.77275 1982 ft 164 kts 133°
2026-05-05 14:06 52.81444 13.78634 1977 ft 163 kts 132°
2026-05-05 14:07 52.80657 13.79973 1976 ft 163 kts 133°
2026-05-05 14:07 52.79874 13.81311 1976 ft 162 kts 132°
2026-05-05 14:07 52.79086 13.82666 1974 ft 162 kts 132°
2026-05-05 14:07 52.78308 13.84001 1972 ft 163 kts 133°
2026-05-05 14:08 52.77523 13.85341 1971 ft 162 kts 132°
2026-05-05 14:08 52.76730 13.86687 1973 ft 163 kts 132°
2026-05-05 14:08 52.75923 13.88061 1974 ft 170 kts 132°
2026-05-05 14:08 52.75089 13.89479 1979 ft 175 kts 133°
2026-05-05 14:09 52.74236 13.90932 1974 ft 173 kts 133°
2026-05-05 14:09 52.73400 13.92350 1976 ft 173 kts 133°
2026-05-05 14:09 52.72562 13.93774 1971 ft 173 kts 133°
2026-05-05 14:09 52.71721 13.95192 1975 ft 173 kts 133°
2026-05-05 14:10 52.70885 13.96615 1975 ft 173 kts 133°
2026-05-05 14:10 52.70052 13.98034 1968 ft 172 kts 133°
2026-05-05 14:10 52.69231 13.99417 1974 ft 169 kts 134°
2026-05-05 14:10 52.68395 14.00818 1975 ft 171 kts 133°
2026-05-05 14:11 52.67552 14.02248 1981 ft 174 kts 133°
2026-05-05 14:11 52.66702 14.03697 1996 ft 178 kts 133°
2026-05-05 14:11 52.65858 14.05160 1993 ft 178 kts 133°
2026-05-05 14:11 52.64992 14.06615 1989 ft 175 kts 133°
2026-05-05 14:12 52.64221 14.08120 1992 ft 171 kts 123°
2026-05-05 14:12 52.63595 14.09787 1991 ft 172 kts 119°
2026-05-05 14:12 52.63025 14.11511 1993 ft 171 kts 112°
2026-05-05 14:12 52.62524 14.13263 1984 ft 170 kts 118°
2026-05-05 14:13 52.61944 14.14973 2001 ft 172 kts 116°
2026-05-05 14:13 52.61382 14.16730 2000 ft 172 kts 117°
2026-05-05 14:13 52.60818 14.18461 1997 ft 172 kts 117°
2026-05-05 14:13 52.60253 14.20194 1995 ft 173 kts 116°
2026-05-05 14:14 52.59522 14.21711 1984 ft 172 kts 147°
2026-05-05 14:14 52.58376 14.22308 1991 ft 171 kts 167°
2026-05-05 14:14 52.57217 14.22770 1991 ft 173 kts 166°
2026-05-05 14:14 52.56059 14.23247 2001 ft 173 kts 166°
2026-05-05 14:15 52.54888 14.23725 2000 ft 174 kts 166°
2026-05-05 14:15 52.53702 14.24213 2002 ft 174 kts 166°
2026-05-05 14:15 52.52532 14.24689 2004 ft 174 kts 166°
2026-05-05 14:15 52.51368 14.25156 2002 ft 173 kts 166°
2026-05-05 14:16 52.50204 14.25635 1994 ft 174 kts 166°
2026-05-05 14:16 52.49019 14.26117 1997 ft 173 kts 165°
2026-05-05 14:16 52.47847 14.26606 1994 ft 174 kts 166°
2026-05-05 14:16 52.46676 14.27080 1993 ft 174 kts 165°
2026-05-05 14:17 52.45506 14.27565 1992 ft 173 kts 165°
2026-05-05 14:17 52.44333 14.28049 1997 ft 174 kts 166°
2026-05-05 14:17 52.43147 14.28535 2001 ft 175 kts 165°
2026-05-05 14:17 52.41967 14.29024 2002 ft 176 kts 165°
2026-05-05 14:18 52.40786 14.29511 2002 ft 176 kts 165°
2026-05-05 14:18 52.39606 14.30000 2001 ft 175 kts 166°
2026-05-05 14:18 52.38424 14.30489 2001 ft 176 kts 165°
2026-05-05 14:18 52.37246 14.30974 1997 ft 174 kts 165°
2026-05-05 14:19 52.36063 14.31462 1999 ft 174 kts 165°
2026-05-05 14:19 52.34889 14.31936 1996 ft 175 kts 165°
2026-05-05 14:19 52.33709 14.32420 1998 ft 176 kts 165°
2026-05-05 14:19 52.32525 14.32899 1990 ft 176 kts 166°
2026-05-05 14:20 52.31328 14.33377 1993 ft 174 kts 165°
2026-05-05 14:20 52.30158 14.33854 1994 ft 175 kts 166°
2026-05-05 14:20 52.28984 14.34330 1992 ft 173 kts 165°
2026-05-05 14:20 52.27808 14.34819 1994 ft 174 kts 165°
2026-05-05 14:21 52.26632 14.35297 1994 ft 175 kts 165°
2026-05-05 14:21 52.25454 14.35766 1995 ft 175 kts 165°
2026-05-05 14:21 52.24265 14.36255 1995 ft 175 kts 165°
2026-05-05 14:21 52.23096 14.36731 1998 ft 175 kts 165°
2026-05-05 14:22 52.21914 14.37212 1995 ft 176 kts 165°
2026-05-05 14:22 52.20724 14.37690 1994 ft 175 kts 166°
2026-05-05 14:22 52.19542 14.38172 2000 ft 175 kts 165°
2026-05-05 14:22 52.18356 14.38645 1993 ft 175 kts 165°
2026-05-05 14:23 52.17166 14.39127 1996 ft 175 kts 165°
2026-05-05 14:23 52.15993 14.39599 1995 ft 174 kts 166°
2026-05-05 14:23 52.14826 14.40058 1990 ft 174 kts 165°
2026-05-05 14:23 52.13643 14.40543 1991 ft 174 kts 166°
2026-05-05 14:24 52.12463 14.41007 1995 ft 174 kts 166°
2026-05-05 14:24 52.11282 14.41486 1992 ft 176 kts 166°
2026-05-05 14:24 52.10097 14.41955 1993 ft 176 kts 166°
2026-05-05 14:24 52.08918 14.42432 1989 ft 174 kts 166°
2026-05-05 14:25 52.07733 14.42908 1988 ft 173 kts 166°
2026-05-05 14:25 52.06563 14.43372 1990 ft 174 kts 165°
2026-05-05 14:25 52.05392 14.43853 1991 ft 174 kts 165°
2026-05-05 14:25 52.04207 14.44325 1992 ft 175 kts 165°
2026-05-05 14:26 52.03031 14.44792 1990 ft 174 kts 166°
2026-05-05 14:26 52.01854 14.45259 1997 ft 174 kts 166°
2026-05-05 14:26 52.00673 14.45720 1994 ft 175 kts 165°
2026-05-05 14:26 51.99490 14.46190 1987 ft 176 kts 166°
2026-05-05 14:27 51.98299 14.46659 1990 ft 175 kts 165°
2026-05-05 14:27 51.97126 14.47118 1984 ft 174 kts 166°
2026-05-05 14:27 51.95957 14.47577 1976 ft 172 kts 166°
2026-05-05 14:27 51.94788 14.48042 1980 ft 172 kts 166°
2026-05-05 14:28 51.93623 14.48488 1979 ft 171 kts 165°
2026-05-05 14:28 51.92463 14.48955 1976 ft 172 kts 165°
2026-05-05 14:28 51.91308 14.49419 1980 ft 171 kts 165°
2026-05-05 14:28 51.90140 14.49880 1975 ft 173 kts 166°
2026-05-05 14:29 51.88980 14.50339 1983 ft 173 kts 165°
2026-05-05 14:29 51.87813 14.50805 1980 ft 172 kts 165°
2026-05-05 14:29 51.86636 14.51273 1976 ft 172 kts 165°
2026-05-05 14:29 51.85480 14.51734 1978 ft 172 kts 165°
2026-05-05 14:30 51.84305 14.52205 1983 ft 174 kts 165°
2026-05-05 14:30 51.83127 14.52662 1983 ft 175 kts 166°
2026-05-05 14:30 51.81954 14.53145 1977 ft 175 kts 165°
2026-05-05 14:30 51.80770 14.53604 1976 ft 175 kts 166°
2026-05-05 14:31 51.79577 14.54060 1975 ft 174 kts 165°
2026-05-05 14:31 51.78404 14.54515 1978 ft 174 kts 165°
2026-05-05 14:31 51.77230 14.54967 1985 ft 175 kts 165°
2026-05-05 14:31 51.76030 14.55433 1980 ft 176 kts 165°
2026-05-05 14:32 51.74849 14.55890 1979 ft 175 kts 165°
2026-05-05 14:32 51.73670 14.56347 1977 ft 174 kts 165°
2026-05-05 14:32 51.72486 14.56796 1976 ft 173 kts 165°
2026-05-05 14:32 51.71318 14.57249 1978 ft 173 kts 165°
2026-05-05 14:33 51.70147 14.57701 1980 ft 174 kts 165°
2026-05-05 14:33 51.68956 14.58157 1979 ft 175 kts 165°
2026-05-05 14:33 51.67776 14.58615 1981 ft 176 kts 165°
2026-05-05 14:33 51.66569 14.59085 1977 ft 177 kts 165°
2026-05-05 14:34 51.65389 14.59545 1988 ft 175 kts 165°
2026-05-05 14:34 51.64196 14.60007 1974 ft 176 kts 165°
2026-05-05 14:34 51.62996 14.60468 1978 ft 177 kts 165°
2026-05-05 14:34 51.61804 14.60927 1977 ft 177 kts 165°
2026-05-05 14:35 51.60608 14.61396 1970 ft 178 kts 161°
2026-05-05 14:35 51.59550 14.62360 1966 ft 175 kts 143°
2026-05-05 14:35 51.58548 14.63473 1964 ft 173 kts 143°
2026-05-05 14:35 51.57554 14.64559 1963 ft 172 kts 144°
2026-05-05 14:36 51.56562 14.65635 1972 ft 173 kts 144°
2026-05-05 14:36 51.55562 14.66730 1965 ft 173 kts 143°
2026-05-05 14:36 51.54584 14.67806 1971 ft 172 kts 143°
2026-05-05 14:36 51.53585 14.68914 1966 ft 173 kts 143°
2026-05-05 14:37 51.52594 14.70005 1967 ft 173 kts 143°
2026-05-05 14:37 51.51597 14.71098 1970 ft 174 kts 143°
2026-05-05 14:37 51.50605 14.72190 1969 ft 174 kts 142°
2026-05-05 14:37 51.49601 14.73316 1973 ft 175 kts 143°
2026-05-05 14:38 51.48608 14.74398 1903 ft 174 kts 143°
2026-05-05 14:38 51.47615 14.75472 1777 ft 170 kts 144°
2026-05-05 14:38 51.46661 14.76520 1654 ft 165 kts 143°
2026-05-05 14:38 51.45712 14.77552 1524 ft 162 kts 144°
2026-05-05 14:39 51.44796 14.78549 1481 ft 156 kts 144°
2026-05-05 14:39 51.43914 14.79512 1472 ft 152 kts 143°
2026-05-05 14:39 51.43051 14.80458 1468 ft 149 kts 141°
2026-05-05 14:39 51.42204 14.81397 1461 ft 151 kts 143°
2026-05-05 14:40 51.41314 14.82366 1470 ft 159 kts 143°
2026-05-05 14:40 51.40373 14.83386 1479 ft 164 kts 143°
2026-05-05 14:40 51.39425 14.84404 1470 ft 166 kts 143°
2026-05-05 14:40 51.38446 14.85451 1476 ft 172 kts 144°
2026-05-05 14:41 51.37463 14.86481 1480 ft 163 kts 145°
2026-05-05 14:41 51.36515 14.87220 1612 ft 144 kts 165°
2026-05-05 14:41 51.35518 14.87379 1528 ft 143 kts 173°
2026-05-05 14:41 51.34552 14.87497 1471 ft 136 kts 174°
2026-05-05 14:42 51.33613 14.87638 1366 ft 131 kts 173°
2026-05-05 14:42 51.32782 14.87774 1363 ft 111 kts 151°
2026-05-05 14:42 51.32338 14.88555 1396 ft 82 kts 102°
2026-05-05 14:42 51.32254 14.89448 1262 ft 80 kts 89°
2026-05-05 14:43 51.32222 14.90333 1170 ft 80 kts 86°
2026-05-05 14:43 51.32198 14.91198 1150 ft 77 kts 85°
2026-05-05 14:43 51.32194 14.92055 1096 ft 77 kts 86°
2026-05-05 14:43 51.32197 14.92906 1079 ft 77 kts 88°
2026-05-05 14:44 51.32197 14.93764 1046 ft 77 kts 85°
2026-05-05 14:44 51.32232 14.94627 1022 ft 75 kts 63°
2026-05-05 14:44 51.32658 14.95052 1008 ft 76 kts 14°
2026-05-05 14:44 51.33197 14.95162 968 ft 83 kts
2026-05-05 14:45 51.33780 14.95128 951 ft 81 kts
2026-05-05 14:45 51.34275 14.95110 910 ft 70 kts
2026-05-05 14:45 51.34756 14.95122 698 ft 68 kts
2026-05-05 14:45 51.35223 14.95143 555 ft 65 kts
2026-05-05 14:46 51.35614 14.95137 525 ft 44 kts 357°
2026-05-05 14:46 51.35708 14.95167 524 ft 4 kts 49°
2026-05-05 14:46 51.35723 14.95200 523 ft 3 kts 59°
2026-05-05 14:46 51.35727 14.95214 523 ft 1 kts 82°
2026-05-05 14:47 51.35728 14.95335 524 ft 16 kts 87°
2026-05-05 14:47 51.35733 14.95528 524 ft 17 kts 89°
2026-05-05 14:47 51.35741 14.95712 524 ft 16 kts 63°
2026-05-05 14:47 51.35830 14.95716 523 ft 14 kts 332°
2026-05-05 14:48 51.35885 14.95666 523 ft 13 kts 329°
2026-05-05 14:48 51.35973 14.95584 522 ft 18 kts 328°
2026-05-05 14:48 51.36083 14.95498 521 ft 17 kts 352°
2026-05-05 14:48 51.36200 14.95486 520 ft 16 kts 354°
2026-05-05 14:49 51.36248 14.95488 520 ft 4 kts 25°
2026-05-05 14:49 51.36254 14.95524 520 ft 0 kts 89°
2026-05-05 14:49 51.36254 14.95525 520 ft 1 kts 89°
2026-05-05 14:49 51.36254 14.95527 520 ft 0 kts 91°